Regional Weather Roundup
Issued by NWS

Home | Current Version | Previous Version | Graphics & Text | Print | Product List | Glossary On
Versions: 1 2 3 4 5 6 7 8 9 10 11 12 13 14 15 16 17 18 19 20 21 22 23 24 25 26 27 28 29 30 31 32 33 34 35 36 37 38 39 40 41 42 43 44 45 46 47 48 49 50
000
ASUS45 KABQ 080610
RWRNM
NEW MEXICO REGIONAL WEATHER ROUNDUP
NATIONAL WEATHER SERVICE ALBUQUERQUE NM
1100 PM MST SUN FEB 07 2016

NOTE: "FAIR" MEANS FEW OR NO CLOUDS BELOW 12,000 FEET AGL WITH NO
       SIGNIFICANT WEATHER OR OBSTRUCTIONS TO VISION.

      THIS PRODUCT IS RELEASED AS TWO VERSIONS.  ONE VERSION NEAR
      THE TOP OF THE HOUR CONTAINING PRELIMINARY DATA FROM ALBUQUERQUE
      AND OTHER STATIONS.  A FINAL VERSION WITH ADDITIONAL DATA IS
      ISSUED ABOUT 10 MINUTES AFTER THE HOUR.

NMZ501-503-504-510>518-080700-
NORTHWEST PLATEAU/NORTHCENTRAL MOUNTAINS

CITY           SKY/WX    TMP DP  RH WIND       PRES   REMARKS
FARMINGTON     CLOUDY    23  19  85 NE6       30.42R WCI  16
6HR MIN TEMP:  23; 6HR MAX TEMP:  46;

LOS ALAMOS     CLOUDY    36  18  48 S5        30.41R WCI  32
SANTA FE       CLOUDY    31  19  61 W5        30.38S WCI  26
6HR MIN TEMP:  31; 6HR MAX TEMP:  50;

TAOS             N/A     16  10  79 N3        30.41R
ANGEL FIRE     FAIR       4  -2  77 SW5       30.41R WCI  -5

$$
NMZ402-403-502-505>509-080700-
WESTCENTRAL MOUNTAINS/SOUTHWEST MOUNTAINS

CITY           SKY/WX    TMP DP  RH WIND       PRES   REMARKS
GALLUP         CLEAR     23  17  78 E5        30.45S WCI  17
6HR MIN TEMP:  22; 6HR MAX TEMP:  50;

GRANTS         CLEAR     16  11  79 NW7       30.46F WCI   7
SILVER CITY      N/A     32  18  55 N6        30.36R WCI  26

$$
NMZ407-409-411-412-080700-
SOUTHERN DESERTS

CITY           SKY/WX    TMP DP  RH WIND       PRES   REMARKS
LORDSBURG      FAIR      37  18  44 SW13      30.31F WCI  29
DEMING         MOCLDY    38  14  37 NW6       30.33R WCI  33
6HR MIN TEMP:  38; 6HR MAX TEMP:  60;

LAS CRUCES     MOCLDY    41  14  33 N6        30.33S
HOLLOMAN AFB   CLOUDY    37  13  37 SE3       30.31R
ALAMOGORDO     CLOUDY    39  14  35 S6        30.33R WCI  35
T OR C         PTCLDY    46  16  30 N7        30.35R
6HR MIN TEMP:  42; 6HR MAX TEMP:  61;


$$
NMZ519>523-080700-
CENTRAL VALLEYS/CENTRAL HIGHLANDS

CITY           SKY/WX    TMP DP  RH WIND       PRES   REMARKS
ALBUQUERQUE    CLOUDY    33  18  53 SE5       30.40R WCI  29
6HR MIN TEMP:  31; 6HR MAX TEMP:  55;

DOUBLE EAGLE   CLOUDY    37  20  50 NW12      30.40R WCI  29
MORIARTY ARPT  FAIR      26  19  74 N7        30.39S WCI  18
6HR MIN TEMP:  25; 6HR MAX TEMP:  49;

CLINES CORNERS CLOUDY    31  19  61 N9        30.37R WCI  23
6HR MIN TEMP:  30; 6HR MAX TEMP:  44;

BELEN          FAIR      30  15  53 N5        30.40R WCI  25
6HR MIN TEMP:  30; 6HR MAX TEMP:  58;

SOCORRO        FAIR      42  16  34 NW14G20   30.38S
6HR MIN TEMP:  42; 6HR MAX TEMP:  58;


$$
NMZ524>526-539-540-080700-
SOUTHCENTRAL MOUNTAINS

CITY           SKY/WX    TMP DP  RH WIND       PRES   REMARKS
RUIDOSO          N/A     37  14  38 CALM      30.41R

$$
NMZ527>531-080700-
NORTHEAST HIGHLANDS/NORTHEAST PLAINS

CITY           SKY/WX    TMP DP  RH WIND       PRES   REMARKS
LAS VEGAS      CLOUDY    26  19  74 S9        30.38S WCI  17
6HR MIN TEMP:  25; 6HR MAX TEMP:  46;

RATON          CLOUDY    21  16  81 S7        30.36R WCI  12
6HR MIN TEMP:  21; 6HR MAX TEMP:  46;

CLAYTON        CLOUDY    23  15  71 NW7       30.41R WCI  15
6HR MIN TEMP:  20; 6HR MAX TEMP:  38;


$$
NMZ532>537-080700-
EASTCENTRAL PLAINS

CITY           SKY/WX    TMP DP  RH WIND       PRES   REMARKS
TUCUMCARI      CLOUDY    28  16  60 NE7       30.44R WCI  21
6HR MIN TEMP:  28; 6HR MAX TEMP:  57;

CANNON AFB     CLOUDY    30  17  59 NE13      30.40R WCI  20
6HR MIN TEMP:  30; 6HR MAX TEMP:  54;

CLOVIS AIRPORT CLOUDY    28  14  54 NE14      30.42R WCI  17

$$
NMZ028-029-538-080700-
SOUTHEAST PLAINS

CITY           SKY/WX    TMP DP  RH WIND       PRES   REMARKS
ROSWELL        PTCLDY    37  18  46 NW3       30.36R
6HR MIN TEMP:  34; 6HR MAX TEMP:  63;

ARTESIA        CLOUDY    37  21  52 CALM      30.36R
CARLSBAD       CLOUDY    46  19  34 E3        30.33R
6HR MIN TEMP:  41; 6HR MAX TEMP:  63;

HOBBS          CLOUDY    39  19  45 NE9       30.37R WCI  33


$$



USA.gov is the U.S. government's official web portal to all federal, state and local government web resources and services.